Location: Banska Bystrica
(48.7330°N, 19.1500°E)
Time: 06:16:38
(UTC+02:00)

ISS - Pass Details

Date: 02 April 2019
Orbit: 408 x 410 km, 51.6° (Epoch: 23 April)

Event Time Altitude Azimuth Distance (km) Brightness Sun altitude
Rises 20:56:24 0° 290° (WNW) 2,339 1.8 -16.6°
Reaches altitude 10° 20:58:30 10° 290° (WNW) 1,475 0.3 -16.9°
Maximum altitude 21:01:48 78° 204° (SSW) 422 -3.9 -17.4°
Enters shadow 21:02:24 56° 133° (SE) 493 -3.8 -17.5°
